Satellite: NO-44
Catalog number: 26931
Epoch time:      11041.76670533
Element set:     676
Inclination:      067.0531 deg
RA of node:       309.2717 deg
Eccentricity:    0.0006984
Arg of perigee:   271.8481 deg
Mean anomaly:     088.1838 deg
Mean motion:   14.29631691 rev/day
Decay rate:      -1.45e-06 rev/day^2
Epoch rev:           48885
Checksum:              333

Satellite: SO-50
Catalog number: 27607
Epoch time:      11041.33452382
Element set:     387
Inclination:      064.5593 deg
RA of node:       353.1036 deg
Eccentricity:    0.0058276
Arg of perigee:   351.0469 deg
Mean anomaly:     008.9591 deg
Mean motion:   14.71640941 rev/day
Decay rate:       1.68e-06 rev/day^2
Epoch rev:           43742
Checksum:              305

Satellite: CO-55
Catalog number: 27844
Epoch time:      11040.57039350
Element set:    0042
Inclination:      098.7078 deg
RA of node:       051.1190 deg
Eccentricity:    0.0009322
Arg of perigee:   203.4202 deg
Mean anomaly:     156.6554 deg
Mean motion:   14.20766597 rev/day
Decay rate:        5.1e-07 rev/day^2
Epoch rev:           39479
Checksum:              292

Satellite: CO-57
Catalog number: 27848
Epoch time:      11041.55076970
Element set:     989
Inclination:      098.7142 deg
RA of node:       051.2335 deg
Eccentricity:    0.0009263
Arg of perigee:   205.5872 deg
Mean anomaly:     154.4863 deg
Mean motion:   14.20552432 rev/day
Decay rate:        4.8e-07 rev/day^2
Epoch rev:           39488
Checksum:              326

Satellite: AO-51
Catalog number: 28375
Epoch time:      11040.53284312
Element set:    0892
Inclination:      098.0831 deg
RA of node:       025.7870 deg
Eccentricity:    0.0084754
Arg of perigee:   096.7035 deg
Mean anomaly:     264.3813 deg
Mean motion:   14.40722787 rev/day
Decay rate:        2.5e-07 rev/day^2
Epoch rev:           34768
Checksum:              315

Satellite: CP3
Catalog number: 31129
Epoch time:      11040.63225033
Element set:    0794
Inclination:      097.9121 deg
RA of node:       072.1473 deg
Eccentricity:    0.0101282
Arg of perigee:   216.7046 deg
Mean anomaly:     142.7180 deg
Mean motion:   14.52371508 rev/day
Decay rate:       -6.6e-07 rev/day^2
Epoch rev:           20232
Checksum:              253

Satellite: CO-65
Catalog number: 32785
Epoch time:      11040.66559756
Element set:    0911
Inclination:      097.8643 deg
RA of node:       106.9183 deg
Eccentricity:    0.0013965
Arg of perigee:   229.7677 deg
Mean anomaly:     130.2324 deg
Mean motion:   14.81820304 rev/day
Decay rate:       -2.0e-08 rev/day^2
Epoch rev:           15065
Checksum:              309

Satellite: KKS-1
Catalog number: 33493
Epoch time:      11041.72706401
Element set:     297
Inclination:      098.1071 deg
RA of node:       168.6703 deg
Eccentricity:    0.0021118
Arg of perigee:   090.5029 deg
Mean anomaly:     269.8611 deg
Mean motion:   14.81315254 rev/day
Decay rate:       7.39e-06 rev/day^2
Epoch rev:           11079
Checksum:              284

Satellite: SOHLA-1
Catalog number: 33496
Epoch time:      11041.81673030
Element set:     330
Inclination:      098.0681 deg
RA of node:       153.0221 deg
Eccentricity:    0.0006847
Arg of perigee:   156.6864 deg
Mean anomaly:     203.4674 deg
Mean motion:   14.69554226 rev/day
Decay rate:        4.9e-07 rev/day^2
Epoch rev:           10992
Checksum:              289

Satellite: TISAT-1
Catalog number: 36799
Epoch time:      11041.88193950
Element set:     571
Inclination:      098.1175 deg
RA of node:       108.8201 deg
Eccentricity:    0.0014784
Arg of perigee:   329.1496 deg
Mean anomaly:     030.8835 deg
Mean motion:   14.80310355 rev/day
Decay rate:       4.34e-06 rev/day^2
Epoch rev:            3162
Checksum:              297

Satellite: STUDSAT
Catalog number: 36801
Epoch time:      11040.79871606
Element set:    0139
Inclination:      098.1231 deg
RA of node:       107.5816 deg
Eccentricity:    0.0013559
Arg of perigee:   320.9356 deg
Mean anomaly:     039.0874 deg
Mean motion:   14.79990816 rev/day
Decay rate:      1.143e-05 rev/day^2
Epoch rev:           03145
Checksum:              299

Satellite: RAX
Catalog number: 37223
Epoch time:      11039.48940803
Element set:    0076
Inclination:      071.9753 deg
RA of node:       322.7653 deg
Eccentricity:    0.0020797
Arg of perigee:   171.1922 deg
Mean anomaly:     188.9635 deg
Mean motion:   14.77230853 rev/day
Decay rate:       3.16e-06 rev/day^2
Epoch rev:           01188
Checksum:              305

Satellite: OOREOS
Catalog number: 37224
Epoch time:      11031.44731873
Element set:    0071
Inclination:      071.9747 deg
RA of node:       340.6006 deg
Eccentricity:    0.0020047
Arg of perigee:   184.3247 deg
Mean anomaly:     175.7744 deg
Mean motion:   14.76886093 rev/day
Decay rate:       1.23e-06 rev/day^2
Epoch rev:           01068
Checksum:              282

Satellite: NANOSALD
Catalog number: 37225
Epoch time:      11039.51529623
Element set:    0027
Inclination:      071.9716 deg
RA of node:       322.8473 deg
Eccentricity:    0.0017765
Arg of perigee:   140.4752 deg
Mean anomaly:     219.7749 deg
Mean motion:   14.77960777 rev/day
Decay rate:     3.3056e-04 rev/day^2
Epoch rev:           00298
Checksum:              321

